Alicante, Spain

8:51 AM CEST on August 20, 2017 (GMT +0200)
Alicante

Weather History for LEAL - November, 2013

Change the Weather History Date:

Friday, November 1, 2013

  Actual Average Record
Temperature  
Mean Temperature 62 °F -  
Max Temperature 75 °F 65 °F 80 °F (1998)
Min Temperature 48 °F 49 °F 46 °F (2007)
Degree Days  
Heating Degree Days 4    
Growing Degree Days 12 (Base 50)    
Moisture  
Dew Point 41 °F    
Average Humidity 47    
Maximum Humidity 72    
Minimum Humidity 13    
Precipitation  
Precipitation 0.00 in - - ()
Sea Level Pressure  
Sea Level Pressure 30.19 in    
Wind  
Wind Speed 6 mph ()    
Max Wind Speed 13 mph    
Max Gust Speed -    
Visibility 17.0 miles    
Events      
Averages and records for this station are not official NWS values.
T = Trace of Precipitation, MM = Missing Value Source: Averaged Metar Reports

Daily Weather History Graph

Daily Weather History Graph

Search for Another Location

Airport or City:

Trip Planner

Search our weather history database for the weather conditions in past years. The results will help you decide how hot, cold, wet, or windy it might be!

Date:

Astronomy

Nov. 01, 2013 Rise Set
Actual Time 7:28 AM CET 6:02 PM CET
Civil Twilight 7:00 AM CET 6:30 PM CET
Nautical Twilight 6:29 AM CET 7:01 PM CET
Astronomical Twilight 5:58 AM CET 7:32 PM CET
Moon 5:06 AM CET (11/1) 4:45 PM CET (11/1)
Length of Visible Light 11h 29m
Length of Day
10h 34m
Waning Crescent, 5% of the Moon is Illuminated
Nov 1
Waning Crescent
Nov 3
New
Nov 10
First Quarter
Nov 17
Full
Nov 25
Last Quarter

Hourly Weather History & Observations

Time (CET) Temp. Dew Point Humidity Pressure Visibility Wind Dir Wind Speed Gust Speed Precip Events Conditions
12:00 AM 59.0 °F 44.6 °F 59% 30.24 in - WNW 4.6 mph - N/A   Clear
12:30 AM 55.4 °F 44.6 °F 67% 30.24 in - WNW 4.6 mph - N/A   Clear
1:00 AM 57.2 °F 44.6 °F 63% 30.24 in - West 4.6 mph - N/A   Clear
1:30 AM 55.4 °F 42.8 °F 63% 30.21 in - WNW 4.6 mph - N/A   Clear
2:00 AM 55.4 °F 42.8 °F 63% 30.21 in - Variable 2.3 mph - N/A   Clear
2:30 AM 53.6 °F 42.8 °F 67% 30.21 in - WNW 5.8 mph - N/A   Clear
3:00 AM 57.2 °F 41.0 °F 55% 30.21 in - West 8.1 mph - N/A   Clear
3:30 AM 55.4 °F 39.2 °F 54% 30.21 in - West 4.6 mph - N/A   Clear
4:00 AM 55.4 °F 39.2 °F 54% 30.21 in - West 9.2 mph - N/A   Clear
4:30 AM 55.4 °F 37.4 °F 51% 30.21 in - West 9.2 mph - N/A   Clear
5:00 AM 55.4 °F 37.4 °F 51% 30.21 in - WSW 8.1 mph - N/A   Clear
5:30 AM 55.4 °F 35.6 °F 47% 30.21 in - West 8.1 mph - N/A   Clear
6:00 AM 53.6 °F 35.6 °F 51% 30.21 in - WSW 8.1 mph - N/A   Clear
6:30 AM 55.4 °F 35.6 °F 47% 30.21 in - WSW 8.1 mph - N/A   Clear
7:00 AM 48 °F 34 °F 46% 30.22 in 16 mi SW 8.1 mph - -  
7:00 AM 50.0 °F 35.6 °F 58% 30.21 in - SW 8.1 mph - N/A   Clear
7:30 AM 51.8 °F 35.6 °F 54% 30.21 in - WSW 6.9 mph - N/A   Clear
8:00 AM 53.6 °F 35.6 °F 51% 30.24 in - West 3.5 mph - N/A   Clear
8:30 AM 55.4 °F 35.6 °F 47% 30.24 in - SW 3.5 mph - N/A   Clear
9:00 AM 59.0 °F 35.6 °F 42% 30.24 in - SW 4.6 mph - N/A   Clear
9:30 AM 64.4 °F 35.6 °F 34% 30.24 in - WSW 5.8 mph - N/A   Clear
10:00 AM 68.0 °F 33.8 °F 28% 30.24 in - West 9.2 mph - N/A   Clear
10:30 AM 69.8 °F 32.0 °F 25% 30.24 in - West 8.1 mph - N/A   Clear
11:00 AM 71.6 °F 33.8 °F 25% 30.24 in - West 5.8 mph - N/A   Clear
11:30 AM 71.6 °F 37.4 °F 29% 30.24 in - SW 6.9 mph - N/A   Clear
12:00 PM 71.6 °F 35.6 °F 27% 30.21 in - WSW 8.1 mph - N/A   Clear
12:30 PM 73.4 °F 35.6 °F 25% 30.21 in - SW 8.1 mph - N/A   Clear
1:00 PM 73 °F 32 °F 13% 30.20 in 19 mi SW 10.4 mph - -   Clear
1:00 PM 75.2 °F 33.8 °F 22% 30.18 in - SW 9.2 mph - N/A   Clear
1:30 PM 75.2 °F 33.8 °F 22% 30.18 in - SW 11.5 mph - N/A   Clear
2:00 PM 75.2 °F 33.8 °F 22% 30.15 in - SW 11.5 mph - N/A   Clear
2:30 PM 77.0 °F 35.6 °F 22% 30.15 in - SSW 12.7 mph - N/A   Clear
3:00 PM 77.0 °F 39.2 °F 26% 30.15 in - South 12.7 mph - N/A   Clear
3:30 PM 77.0 °F 42.8 °F 29% 30.15 in - South 11.5 mph - N/A   Clear
4:00 PM 75.2 °F 48.2 °F 38% 30.12 in - South 10.4 mph - N/A   Clear
4:30 PM 75.2 °F 50.0 °F 41% 30.12 in - South 10.4 mph - N/A   Clear
5:00 PM 73.4 °F 51.8 °F 47% 30.12 in - South 11.5 mph - N/A   Clear
5:30 PM 71.6 °F 53.6 °F 53% 30.12 in - South 10.4 mph - N/A   Clear
6:00 PM 71.6 °F 51.8 °F 50% 30.12 in - South 9.2 mph - N/A   Clear
6:30 PM 69.8 °F 48.2 °F 46% 30.12 in - SSW 6.9 mph - N/A   Clear
7:00 PM 65 °F 47 °F 42% 30.15 in 16 mi SSW 6.9 mph - -   Clear
7:00 PM 66.2 °F 50.0 °F 56% 30.15 in - SSW 5.8 mph - N/A   Clear
7:30 PM 62.6 °F 48.2 °F 59% 30.15 in - WSW 4.6 mph - N/A   Clear
8:00 PM 62.6 °F 48.2 °F 59% 30.15 in - West 6.9 mph - N/A   Clear
8:30 PM 62.6 °F 48.2 °F 59% 30.15 in - WSW 5.8 mph - N/A   Clear
9:00 PM 60.8 °F 48.2 °F 63% 30.15 in - West 4.6 mph - N/A   Clear
9:30 PM 57.2 °F 48.2 °F 72% 30.15 in - SW 4.6 mph - N/A   Clear
10:00 PM 59.0 °F 46.4 °F 63% 30.15 in - WSW 8.1 mph - N/A   Clear
10:30 PM 59.0 °F 44.6 °F 59% 30.15 in - WSW 6.9 mph - N/A   Clear
11:00 PM 57.2 °F 44.6 °F 63% 30.15 in - SW 4.6 mph - N/A   Clear
11:30 PM 59.0 °F 46.4 °F 63% 30.15 in - WSW 8.1 mph - N/A   Clear